Location: Trapani
(38.0170°N, 12.4830°E)
Time: 13:20:30
(UTC+01:00)

ISS - Visible Passes

Search period start: 24 January 2019 00:00
Search period end: 03 February 2019 00:00
Orbit: 404 x 410 km, 51.6° (Epoch: 24 January)

Date Brightness Start Highest point End Pass type
(mag) Time Alt. Az. Time Alt. Az. Time Alt. Az.
24 Jan -1.5 19:22:34 10° WNW 19:24:47 19° NNW 19:24:47 19° NNW visible
25 Jan -2.3 18:30:34 10° W 18:33:30 29° NNW 18:35:41 15° NNE visible
26 Jan -1.1 19:17:46 10° NW 19:19:12 12° NNW 19:19:13 12° NNW visible
27 Jan -1.4 18:25:19 10° WNW 18:27:31 16° NNW 18:29:43 10° NNE visible
29 Jan -1.1 18:20:45 10° NNW 18:21:38 11° NNW 18:22:31 10° N visible
